World > North America > United States > Texas > Panther Creek  

Panther Creek, TX Hourly Weather Updates

Feedback E-mail the Weather

Quick Clicks

Panther Creek, TX Weather Maps

°F °C°F °C
Panther Creek Weather Map
UTC Time: 4/23/2024, 18:30
Your Time:

Panther Creek, TX Regional Weather

Expires:202404231900;;249639
ASUS44 KSJT 231810
RWRSJT
WEST CENTRAL TEXAS REGIONAL WEATHER ROUNDUP
NATIONAL WEATHER SERVICE SAN ANGELO TX
100 PM CDT TUE APR 23 2024

NOTE: "FAIR" INDICATES FEW OR NO CLOUDS BELOW 12,000 FEET WITH NO
SIGNIFICANT WEATHER AND/OR OBSTRUCTIONS TO VISIBILITY.


TXZ163-177-195>197-199-213-226-237-231900-
SOUTHEAST TEXAS
  
CITY           SKY/WX    TMP DP  RH WIND       PRES   REMARKS
COLLEGE STN    CLOUDY    74  60  61 S15G22    30.08F TC  23           
CALDWELL       CLOUDY    72  60  65 S14       30.08F TC  22           
CROCKETT       SUNNY     75  64  69 S8G15     30.08F TC  24           
BRENHAM        CLOUDY    74  62  66 S10       30.09F TC  23           
HUNTSVILLE     PTSUNNY   75  60  59 S12G21    30.09F TC  24           
CONROE         CLOUDY    75  59  57 S12G18    30.10F TC  24           
HOUSTON BUSH   PTSUNNY   77  61  57 SE13G20   30.09F TC  25           
HOUSTON HOBBY  CLOUDY    77  61  57 S13       30.09F TC  25           
PERLAND        CLOUDY    75  61  61 SE12      30.11F TC  24           
WHARTON        CLOUDY   N/A N/A N/A SE8       30.10S                  
$$


SKY/WX - Weather  TMP - Temperature  DP - Dew Point  RH - Humidity
WIND - Wind Direction/Speed PRES - Barometric Pressure VSB - Visibility
WCI - Wind Chill Index E13G22 Wind - East Wind 13 mph/Gusts of 22 mph

Trending Headlines

Trending Entertainment Headlines

Panther Creek Radar Loop

Use the map search tool if you want to place a location marker on the radar map...

Panther Creek Quick Facts

National Two Day Weather Forecast


E-mail the Panther Creek Weather Forecast

Voice your opinion or tell us about page issues...